Terug naar catalogus

CZ-6A DEB

ActiefPO
NORAD 61089·DEBRIS·🇨🇳 China

Gelanceerd Aug 6, 2024 vanaf Taiyuan Satellite Launch Center

Loading…

Volgende Passages (komende 24 uur)

TLE

VersSource: Space-Track

Epoch: Sep 14, 2026, 07:38 UTC

1 61089U 24140NF  26257.31816717  .00000644  00000-0  31630-3 0  9991
2 61089  89.0573 270.8281 0064539 273.3277  86.0529 14.15582356105785

Volg CZ-6A DEB in realtime met AllMySat

Download on the App Store